Dewpoint
-5 -5 -4 -5 -5 -5 -4 -4 -4 -4 -4 -4 -5 -5 -4 -4 -4 -3 -3 -3 -3 -2 -2 -2 -3 -3 -3 -3 -3 -3 -3 -3 -1 1 0 -1 2 8 10 10 10 11 12
-5 -5 -5 -5 -5 -5 -5 -5 -6 -6 -8 -11 -14 -15 -14 -14 -12 -6 -2 -1 0 1 2 2 2 1 1 1 1 1 0 -0 -1 -1 -0 0 1 0 6 9 10 10 10
-6 -5 -5 -6 -8 -12 -17 -21 -24 -24 -26 -27 -28 -29 -29 -24 -14 -6 -2 0 2 2 2 2 1 1 1 1 1 2 3 1 3 2 1 -0 -0 -0 1 2 4 8 9
-6 -5 -6 -11 -16 -19 -22 -23 -24 -24 -24 -24 -24 -25 -25 -22 -13 -7 -2 -0 0 0 0 -0 0 1 1 1 1 1 2 2 2 5 7 8 7 5 2 1 1 0 0
-5 -5 -8 -13 -16 -17 -18 -18 -17 -18 -18 -19 -21 -23 -21 -13 -7 -2 0 1 1 -1 -1 -0 -0 1 1 1 2 2 2 3 4 7 7 7 7 7 7 6 6 6 5
-6 -6 -9 -13 -14 -14 -14 -13 -13 -13 -14 -16 -18 -20 -17 -10 -4 0 2 -0 -2 -4 -3 -3 -1 0 1 1 1 1 2 2 4 7 6 7 7 7 8 8 8 8 7
-6 -6 -8 -11 -11 -11 -10 -10 -9 -9 -10 -12 -14 -16 -17 -10 -3 -1 -1 -0 -4 -7 -10 -16 -12 -4 -1 0 1 0 1 1 2 6 6 7 7 7 7 8 8 8 8
-5 -5 -5 -6 -8 -9 -8 -7 -7 -7 -7 -9 -12 -16 -17 -13 -11 -11 -16 -15 -7 -3 -6 -22 -27 -25 -16 -7 -5 -8 -6 -3 0 2 5 5 5 5 5 5 5 6 7
-4 -4 -4 -4 -4 -5 -7 -7 -6 -6 -5 -6 -8 -14 -17 -18 -18 -18 -19 -16 -13 -11 -16 -25 -25 -25 -24 -21 -14 -15 -20 -22 -18 -3 3 4 4 4 4 4 5 6 6
-4 -3 -3 -3 -3 -3 -3 -4 -6 -6 -5 -5 -6 -7 -11 -16 -18 -18 -19 -19 -20 -22 -24 -26 -24 -23 -20 -16 -14 -19 -20 -23 -25 -25 -8 2 1 -0 1 2 4 5 4
-3 -3 -3 -3 -2 -3 -3 -3 -3 -4 -6 -5 -5 -5 -6 -10 -13 -16 -16 -16 -18 -20 -23 -24 -22 -18 -17 -14 -14 -18 -19 -21 -22 -22 -10 -0 -5 -19 -11 -5 -0 -0 1
-0 -2 -3 -3 -2 -2 -2 -2 -2 -2 -3 -5 -6 -5 -6 -8 -11 -15 -15 -16 -17 -17 -20 -23 -19 -18 -16 -14 -17 -18 -19 -20 -20 -20 -8 -1 -10 -22 -23 -19 -16 -18 -14
-1 -0 -1 -1 -1 -2 -2 -2 -2 -2 -2 -2 -4 -6 -6 -5 -7 -10 -13 -14 -16 -15 -18 -20 -20 -18 -17 -16 -16 -18 -20 -21 -21 -21 -19 -6 -18 -19 -21 -21 -20 -21 -21
0 0 -0 -1 -2 -2 -2 -1 -1 -1 -1 -1 -2 -3 -5 -6 -6 -7 -10 -14 -11 -15 -16 -17 -19 -19 -18 -16 -17 -18 -20 -20 -21 -21 -20 -18 -17 -18 -18 -18 -19 -21 -22
-2 -2 -2 -2 -2 -2 -2 -2 -2 -2 -1 -1 -1 -1 -2 -3 -6 -6 -8 -11 -14 -8 -10 -13 -16 -18 -16 -16 -16 -18 -19 -19 -19 -20 -19 -17 -15 -16 -16 -16 -16 -17 -18
-5 -5 -5 -5 -5 -4 -4 -3 -3 -2 -1 -1 -0 -0 -1 -1 -3 -6 -7 -9 -12 -14 -6 -11 -14 -17 -18 -17 -16 -17 -19 -19 -20 -19 -18 -17 -15 -14 -16 -15 -15 -15 -16
-10 -10 -9 -8 -8 -8 -7 -6 -6 -5 -3 -2 -1 0 0 -0 -1 -3 -6 -8 -10 -12 -12 -13 -14 -16 -18 -18 -16 -17 -19 -19 -20 -18 -17 -16 -15 -13 -14 -14 -14 -14 -15
-23 -23 -22 -21 -20 -18 -15 -11 -9 -7 -6 -4 -3 -1 -0 0 0 -1 -3 -7 -8 -9 -12 -13 -13 -14 -17 -18 -17 -18 -19 -19 -18 -17 -15 -14 -13 -12 -13 -13 -13 -14 -17
-27 -29 -29 -29 -30 -30 -30 -29 -27 -22 -14 -8 -6 -5 -3 -1 0 0 -1 -3 -6 -8 -9 -12 -13 -13 -15 -17 -17 -18 -20 -19 -17 -16 -14 -14 -12 -12 -12 -13 -13 -15 -19
-26 -26 -24 -22 -22 -22 -22 -21 -22 -25 -27 -25 -19 -9 -5 -4 -2 -0 0 -1 -3 -7 -9 -10 -12 -13 -13 -15 -16 -17 -19 -18 -17 -15 -14 -13 -12 -13 -13 -14 -15 -18 -19
-23 -21 -20 -19 -18 -18 -19 -19 -19 -18 -17 -18 -21 -23 -20 -9 -5 -3 -0 -0 -2 -5 -8 -10 -11 -12 -11 -12 -16 -17 -17 -16 -17 -16 -14 -10 -10 -11 -13 -15 -17 -18 -18
-23 -20 -17 -15 -15 -16 -17 -18 -18 -19 -19 -19 -20 -19 -20 -18 -9 -4 -3 -0 -1 -4 -7 -8 -10 -11 -9 -9 -14 -16 -14 -14 -12 -14 -12 -12 -11 -13 -14 -16 -17 -17 -17
-21 -17 -14 -13 -13 -13 -12 -13 -14 -13 -14 -16 -17 -17 -18 -16 -12 -6 -4 -2 -1 -3 -6 -7 -9 -11 -10 -5 -14 -13 -13 -13 -12 -10 -10 -11 -12 -14 -15 -15 -15 -16 -16
-19 -15 -12 -11 -10 -10 -9 -10 -8 -8 -8 -8 -11 -14 -14 -15 -12 -6 -4 -3 -1 -3 -5 -7 -6 -9 -7 -6 -11 -11 -11 -11 -11 -10 -7 -9 -12 -13 -14 -13 -13 -13 -10
-21 -15 -12 -10 -9 -9 -9 -9 -7 -7 -7 -7 -7 -8 -8 -10 -11 -6 -3 -3 -2 -2 -4 -5 -6 -7 -4 -6 -10 -7 -10 -10 -8 -7 -8 -8 -11 -13 -13 -12 -12 -12 -11
-23 -19 -13 -12 -11 -9 -9 -8 -8 -5 -4 -4 -4 -4 -4 -5 -5 -5 -4 -4 -4 -2 -3 -5 -5 -4 -5 -5 -9 -10 -9 -7 -6 -6 -10 -11 -12 -12 -11 -11 -13 -12 -11
Wind_Speed
11 11 11 12 12 12 12 12 12 12 12 12 12 11 11 11 11 10 10 10 11 11 12 13 14 15 16 17 18 19 21 23 25 26 27 26 26 23 23 24 24 24 26
11 11 11 12 12 12 13 13 13 13 13 12 12 12 11 11 10 9 8 8 8 9 10 11 11 12 12 13 14 16 18 20 20 21 24 25 27 28 28 26 25 26 26
11 10 10 10 11 11 11 11 12 13 13 13 13 12 11 10 8 7 7 7 7 9 10 11 11 12 11 11 12 12 14 16 16 17 20 22 24 27 29 30 31 31 29
12 11 11 11 12 12 12 13 12 12 12 12 12 12 11 10 9 8 7 7 8 9 10 11 11 11 12 12 13 13 14 15 15 12 11 10 14 18 21 24 27 29 32
12 11 11 12 12 13 13 13 14 14 13 12 11 9 8 7 7 7 6 7 7 9 10 10 11 11 11 11 12 12 13 12 11 11 12 11 11 11 14 16 18 20 21
11 11 11 12 12 13 13 14 15 15 16 15 12 12 10 7 6 6 6 7 9 11 11 11 11 11 12 12 12 12 12 11 6 6 11 8 9 7 6 7 9 11 15
11 12 12 12 13 13 14 15 15 15 14 14 12 13 8 7 7 7 11 12 13 12 11 12 12 12 12 13 13 13 13 13 11 7 8 9 10 11 12 13 10 12 15
12 12 12 12 12 12 13 14 15 16 16 16 15 10 5 7 6 10 15 14 11 13 15 16 17 16 16 15 15 15 15 13 13 12 11 14 14 16 17 16 20 21 20
13 13 13 13 14 14 14 15 15 16 16 16 15 8 5 4 18 7 10 10 11 14 17 20 18 17 16 16 15 13 12 11 12 12 10 10 18 21 21 21 16 18 19
15 14 14 15 15 16 16 17 17 16 16 15 15 12 11 11 6 8 9 15 15 11 20 19 17 17 14 13 13 13 12 12 11 11 11 9 12 17 17 16 13 19 22
17 16 16 16 16 17 18 18 19 18 18 17 16 16 15 14 14 11 19 15 20 15 15 14 17 13 13 13 13 14 14 14 14 11 11 10 16 17 15 14 15 20 21
17 18 17 18 18 19 19 19 20 20 20 19 19 18 18 17 18 16 18 24 25 22 17 16 12 15 14 14 14 15 17 17 16 13 12 11 16 15 15 15 16 17 19
16 15 17 18 19 19 20 20 21 21 21 22 21 21 21 21 20 21 22 23 23 25 23 20 15 13 15 14 14 18 18 18 19 17 15 14 18 17 16 15 15 16 17
14 13 15 18 19 20 21 22 23 23 22 24 24 24 25 24 23 23 24 23 20 22 24 21 18 17 15 14 19 20 19 18 18 18 17 15 17 17 17 17 16 17 18
13 14 15 18 20 22 24 25 26 26 26 27 27 26 28 27 27 27 27 26 24 13 16 25 19 19 17 20 23 22 21 20 18 18 18 16 15 15 16 16 16 17 17
16 18 19 21 23 24 24 26 27 28 29 30 30 30 30 30 29 30 30 29 29 28 19 27 27 25 25 25 24 24 22 22 21 19 19 18 16 16 17 17 17 17 17
16 18 19 21 22 23 24 26 27 28 30 31 32 34 33 33 32 32 33 33 32 32 35 33 31 30 28 26 25 24 23 23 22 20 19 19 18 18 18 18 18 18 18
21 23 24 25 27 27 28 29 30 29 31 32 32 34 36 36 36 35 36 37 36 35 36 38 31 33 31 27 25 24 24 22 22 20 18 18 18 19 19 18 17 18 19
24 25 26 27 28 29 31 31 33 33 33 33 33 35 36 37 39 40 39 39 39 38 38 39 38 34 32 29 27 24 23 23 22 20 19 19 19 19 21 19 17 18 18
26 27 27 28 29 30 31 32 33 34 35 35 35 35 36 38 40 41 43 43 40 41 40 41 40 37 33 32 28 26 24 22 22 19 19 18 15 15 17 18 17 17 16
28 28 29 30 30 31 31 32 34 35 36 36 36 37 37 38 38 40 43 46 44 43 43 42 42 38 35 34 28 26 25 23 22 20 17 14 14 16 18 18 17 15 15
31 32 31 31 31 31 31 30 31 34 35 37 39 39 39 38 38 39 41 43 46 45 44 44 43 41 37 33 27 25 23 22 19 16 14 16 18 16 16 16 15 15 15
34 33 33 33 33 32 31 31 31 33 35 36 38 40 40 39 38 38 38 39 43 45 44 42 41 40 37 33 25 25 22 21 21 18 18 20 17 13 13 16 15 14 15
35 36 36 35 35 34 33 32 31 33 35 35 36 37 39 40 37 36 38 38 39 42 44 43 39 39 35 27 25 22 20 20 20 19 14 21 18 15 11 12 15 15 13
37 37 38 38 38 38 35 31 30 31 32 34 34 34 34 36 36 33 34 38 40 40 38 41 39 35 32 25 25 23 23 20 20 19 16 17 18 12 12 12 8 10 10
39 39 40 38 39 40 35 30 28 27 32 33 34 35 35 36 37 33 32 35 41 40 36 37 37 38 34 29 27 26 22 20 20 19 14 11 12 11 6 8 4 7 10
Wind_Direction
345 344 345 343 340 338 337 335 335 334 332 331 326 322 318 313 307 299 293 291 289 285 285 283 282 285 284 283 281 278 275 273 271 270 269 268 266 266 265 266 266 267 264
348 346 345 346 345 342 342 341 337 335 334 330 323 317 311 308 307 301 293 292 292 292 294 295 294 294 292 291 292 288 285 282 277 273 270 268 267 265 262 264 264 265 265
345 347 349 347 346 347 346 341 340 336 333 328 324 318 310 305 304 304 303 305 307 308 308 305 305 305 302 293 291 293 292 295 295 291 284 279 273 270 269 267 265 265 265
346 349 350 350 351 348 344 346 344 345 343 339 333 327 320 312 306 303 303 303 304 307 308 307 305 302 300 301 298 296 300 298 299 304 307 314 305 283 277 274 273 270 267
346 348 349 348 346 344 345 348 347 345 345 346 341 331 314 298 293 295 300 306 310 313 312 311 308 307 307 307 306 303 305 310 315 326 316 305 308 295 284 283 284 284 275
341 343 342 342 343 344 346 346 347 348 348 349 346 337 318 302 294 294 301 306 312 316 312 311 308 304 301 299 300 304 306 307 307 326 304 294 287 281 273 286 284 280 269
336 337 337 339 340 342 342 344 347 347 348 349 349 338 313 295 280 282 294 295 299 304 308 313 307 301 297 295 296 294 294 294 290 276 300 292 267 262 265 268 288 290 288
328 328 328 329 331 333 335 336 339 344 348 351 354 349 326 303 296 302 292 290 292 297 307 314 312 306 299 297 299 299 295 292 280 272 264 272 270 274 278 286 290 293 284
314 318 319 319 321 322 325 327 330 334 338 341 346 355 330 313 319 312 304 295 298 305 310 313 312 312 308 305 308 311 310 301 286 274 290 316 277 266 274 280 287 281 289
300 304 309 312 312 314 316 316 318 321 322 324 326 326 318 306 307 307 304 303 301 306 307 304 305 306 303 304 305 309 309 304 295 281 284 317 308 286 283 281 272 279 277
290 294 299 304 310 311 309 307 306 305 305 306 307 308 306 303 296 282 298 300 299 301 299 295 296 285 290 292 299 305 309 305 302 298 294 321 296 294 294 291 289 281 280
291 289 290 296 303 306 306 304 301 299 297 297 297 297 297 297 296 291 290 301 307 312 308 305 297 293 291 297 304 311 311 309 306 302 302 318 298 300 295 295 292 289 285
303 291 287 291 296 301 303 303 301 298 295 291 289 289 289 290 288 289 286 288 293 300 305 304 298 286 287 288 300 311 310 309 308 307 301 302 299 300 296 294 293 292 288
304 296 291 294 298 299 301 301 299 298 296 293 289 285 283 283 282 282 281 282 284 287 291 294 293 290 286 282 302 308 307 305 301 302 302 298 300 300 298 295 294 294 293
310 307 302 299 299 299 298 297 295 296 293 290 289 286 282 280 277 277 276 274 271 266 278 287 283 287 283 288 300 301 301 301 300 299 299 296 295 298 296 294 291 291 293
311 309 306 303 301 299 298 295 294 293 289 287 286 284 283 282 279 274 273 271 267 265 258 278 285 284 285 289 293 295 296 296 296 297 297 295 293 289 292 290 288 287 287
325 320 316 312 310 307 305 300 297 294 290 287 283 281 280 280 279 275 271 268 266 264 262 274 278 283 283 285 288 291 293 293 294 294 291 291 291 286 292 287 286 285 284
319 314 310 307 305 303 301 300 299 297 294 291 288 283 280 278 276 276 272 268 266 265 264 267 273 279 282 282 282 286 289 289 290 292 290 289 289 287 288 286 282 285 285
315 312 310 308 306 304 301 299 297 295 293 291 288 284 283 279 274 270 270 268 266 265 264 264 268 271 277 280 281 282 283 284 286 289 290 291 286 282 281 283 282 281 286
320 318 317 316 314 311 308 306 302 299 296 293 290 286 283 279 276 273 268 266 265 261 260 260 262 264 270 274 277 280 281 281 283 285 288 287 281 281 284 287 283 280 278
326 325 322 320 318 315 315 312 309 305 301 298 295 292 288 283 279 274 271 266 261 259 257 257 258 259 263 267 270 277 276 281 283 287 284 275 274 286 286 284 282 275 269
329 327 326 323 321 319 318 313 308 305 303 302 300 297 294 290 286 281 274 270 263 258 256 255 255 255 260 264 268 267 270 275 285 285 275 279 286 289 280 278 275 269 265
331 329 327 325 322 321 321 317 313 306 304 303 302 302 298 294 292 287 281 273 268 261 255 257 255 256 257 262 263 260 260 268 273 278 289 294 299 293 281 279 271 267 270
330 330 328 326 323 324 323 317 312 307 305 305 302 301 300 299 295 290 285 279 268 259 254 253 255 255 258 256 251 256 262 267 267 273 283 292 296 296 282 276 276 266 246
328 328 329 327 323 321 320 314 310 309 307 306 307 304 303 300 298 295 288 280 271 264 251 253 256 254 254 241 253 253 257 256 266 272 282 285 285 287 293 289 270 241 243
325 325 323 324 323 319 317 308 308 316 310 306 307 307 307 308 307 299 286 278 267 264 249 244 240 246 250 245 250 254 250 247 251 273 281 258 273 288 300 289 237 187 283
Height
1544 1543 1542 1540 1538 1537 1535 1533 1532 1530 1528 1527 1525 1524 1523 1522 1521 1520 1519 1518 1518 1517 1517 1517 1516 1516 1515 1515 1514 1513 1512 1512 1512 1511 1511 1511 1511 1512 1511 1512 1512 1512 1513
1544 1542 1541 1540 1537 1536 1534 1532 1530 1528 1527 1525 1524 1522 1521 1519 1518 1517 1516 1515 1515 1514 1514 1513 1513 1512 1512 1511 1510 1509 1508 1507 1506 1506 1505 1504 1504 1505 1506 1506 1506 1506 1506
1543 1542 1540 1538 1536 1535 1533 1531 1530 1527 1526 1524 1522 1520 1518 1517 1516 1516 1515 1514 1514 1513 1512 1512 1511 1510 1509 1507 1506 1505 1504 1503 1502 1500 1499 1499 1498 1498 1499 1499 1500 1500 1500
1543 1541 1539 1538 1536 1534 1532 1530 1529 1527 1525 1523 1521 1519 1517 1516 1515 1514 1514 1513 1512 1512 1510 1509 1508 1507 1505 1504 1503 1502 1500 1499 1498 1497 1496 1495 1494 1493 1492 1492 1492 1492 1493
1542 1540 1538 1537 1535 1533 1531 1529 1527 1525 1523 1521 1519 1517 1515 1514 1513 1512 1512 1512 1511 1510 1508 1507 1506 1504 1503 1501 1500 1499 1497 1496 1495 1494 1493 1492 1490 1489 1488 1487 1486 1485 1485
1541 1539 1537 1536 1534 1532 1531 1529 1527 1524 1522 1520 1518 1515 1513 1512 1511 1511 1511 1510 1509 1508 1507 1505 1504 1502 1501 1499 1497 1496 1494 1493 1492 1492 1490 1488 1487 1486 1484 1483 1482 1480 1479
1539 1538 1536 1534 1533 1531 1530 1527 1525 1523 1521 1519 1516 1513 1510 1509 1509 1509 1509 1508 1506 1505 1504 1502 1501 1499 1497 1496 1494 1492 1491 1489 1488 1488 1486 1484 1483 1482 1480 1479 1478 1477 1474
1537 1536 1534 1533 1531 1529 1527 1526 1523 1521 1519 1517 1515 1512 1510 1509 1507 1507 1506 1505 1503 1502 1501 1499 1497 1495 1494 1492 1491 1489 1488 1486 1484 1483 1482 1480 1479 1478 1476 1475 1475 1473 1470
1535 1533 1532 1531 1529 1528 1526 1524 1522 1520 1518 1516 1514 1514 1511 1509 1507 1504 1503 1502 1501 1500 1498 1496 1493 1492 1490 1488 1486 1485 1483 1482 1480 1479 1477 1476 1474 1473 1471 1470 1469 1467 1464
1532 1531 1530 1528 1527 1525 1523 1521 1519 1518 1516 1515 1513 1512 1510 1508 1507 1504 1501 1499 1498 1496 1495 1492 1490 1488 1486 1484 1482 1481 1479 1477 1476 1474 1473 1471 1469 1466 1465 1463 1462 1460 1459
1528 1527 1526 1525 1524 1522 1520 1518 1516 1515 1513 1512 1511 1509 1507 1505 1503 1501 1496 1495 1495 1493 1491 1489 1486 1483 1482 1480 1479 1477 1475 1474 1472 1471 1469 1467 1464 1461 1459 1457 1455 1454 1452
1524 1524 1523 1522 1520 1518 1516 1514 1512 1511 1510 1508 1507 1506 1504 1503 1500 1498 1495 1492 1489 1487 1487 1485 1482 1480 1479 1477 1476 1474 1472 1469 1468 1466 1465 1463 1459 1457 1455 1453 1451 1449 1447
1521 1520 1518 1517 1516 1514 1512 1509 1507 1506 1505 1503 1502 1501 1499 1497 1495 1493 1491 1488 1485 1482 1479 1478 1477 1476 1474 1473 1471 1470 1468 1465 1463 1462 1460 1458 1456 1453 1451 1448 1446 1444 1442
1517 1516 1515 1513 1512 1510 1507 1505 1502 1501 1499 1497 1496 1494 1493 1491 1489 1487 1485 1484 1481 1478 1475 1473 1471 1469 1469 1467 1466 1464 1462 1460 1458 1456 1454 1452 1451 1449 1446 1444 1441 1439 1437
1514 1512 1511 1509 1507 1505 1503 1500 1497 1494 1493 1491 1489 1488 1486 1484 1483 1481 1479 1478 1476 1474 1470 1466 1466 1465 1464 1463 1461 1459 1457 1455 1453 1451 1449 1447 1445 1444 1441 1439 1437 1435 1433
1511 1509 1506 1504 1502 1499 1496 1493 1490 1488 1486 1484 1482 1480 1479 1477 1476 1475 1473 1472 1470 1468 1465 1464 1461 1459 1459 1457 1455 1453 1451 1450 1448 1446 1444 1442 1441 1438 1436 1434 1432 1430 1429
1507 1505 1502 1499 1496 1493 1490 1486 1484 1481 1478 1476 1474 1471 1470 1469 1467 1466 1465 1464 1462 1460 1456 1456 1455 1453 1452 1451 1450 1448 1446 1443 1441 1440 1439 1437 1435 1433 1431 1429 1427 1425 1423
1504 1500 1497 1494 1490 1487 1483 1480 1476 1473 1470 1467 1466 1462 1460 1459 1458 1457 1456 1454 1452 1452 1449 1445 1447 1445 1444 1444 1443 1441 1440 1438 1436 1434 1433 1431 1429 1427 1425 1424 1422 1420 1418
1499 1495 1491 1487 1483 1480 1476 1472 1468 1464 1461 1458 1456 1452 1450 1449 1446 1446 1444 1443 1442 1442 1440 1437 1436 1437 1436 1436 1435 1434 1432 1431 1429 1428 1426 1425 1423 1421 1419 1418 1417 1415 1413
1492 1488 1484 1480 1476 1472 1468 1463 1459 1455 1452 1448 1446 1443 1440 1438 1435 1435 1432 1430 1430 1429 1429 1428 1427 1427 1428 1427 1426 1426 1426 1425 1423 1422 1420 1418 1417 1415 1414 1412 1411 1410 1408
1486 1482 1477 1473 1469 1464 1460 1455 1450 1445 1441 1437 1435 1432 1429 1427 1425 1423 1421 1418 1419 1418 1417 1417 1417 1418 1418 1418 1419 1419 1418 1417 1416 1415 1414 1413 1412 1410 1408 1406 1405 1404 1403
1480 1475 1471 1466 1461 1457 1452 1448 1443 1436 1431 1426 1423 1420 1417 1414 1412 1411 1409 1407 1406 1405 1404 1405 1406 1406 1408 1410 1412 1411 1411 1410 1410 1408 1407 1407 1406 1404 1403 1401 1400 1399 1399
1473 1468 1464 1458 1453 1449 1444 1439 1433 1427 1422 1417 1413 1408 1405 1403 1401 1398 1396 1395 1393 1392 1394 1395 1395 1397 1399 1401 1404 1403 1404 1403 1403 1403 1402 1399 1399 1398 1397 1395 1394 1394 1393
1466 1461 1456 1450 1444 1439 1435 1429 1424 1418 1413 1409 1404 1400 1395 1391 1390 1387 1384 1381 1381 1380 1381 1383 1386 1388 1390 1393 1394 1395 1396 1396 1396 1396 1397 1394 1392 1393 1392 1391 1389 1389 1388
1459 1453 1448 1441 1436 1431 1427 1421 1416 1410 1404 1399 1396 1391 1387 1382 1379 1377 1374 1370 1369 1368 1370 1373 1376 1379 1381 1384 1386 1387 1388 1390 1390 1390 1391 1390 1388 1387 1387 1385 1384 1384 1385
1451 1446 1440 1436 1430 1423 1420 1414 1409 1403 1397 1392 1387 1382 1378 1374 1369 1367 1364 1361 1358 1357 1359 1363 1366 1368 1372 1375 1379 1379 1381 1382 1384 1385 1384 1386 1385 1385 1383 1381 1380 1381 1382